Time,TemperatureF,DewpointF,PressureIn,WindDirection,WindDirectionDegrees,WindSpeedMPH,WindSpeedGustMPH,Humidity,HourlyPrecipIn,Conditions,Clouds,dailyrainin,SoftwareType,DateUTC
2013-06-16 00:01:00,65.7,51.9,30.09,ESE,115,1.1,0.0,61,0.00,-RA,OVC,0.00,WeatherDisplay:10.37,2013-06-16 06:01:00,
2013-06-16 00:06:00,65.5,51.7,30.09,ESE,115,0.0,0.0,61,0.00,-RA,OVC,0.00,WeatherDisplay:10.37,2013-06-16 06:06:00,
2013-06-16 00:11:00,65.1,51.8,30.09,ESE,115,0.0,0.0,62,0.00,-RA,OVC,0.00,WeatherDisplay:10.37,2013-06-16 06:11:00,
2013-06-16 00:16:00,64.8,51.9,30.09,ESE,115,0.0,0.0,63,0.00,-RA,OVC,0.00,WeatherDisplay:10.37,2013-06-16 06:16:00,
2013-06-16 00:21:00,64.5,51.6,30.09,ESE,115,0.0,0.1,63,0.00,-RA,OVC,0.00,WeatherDisplay:10.37,2013-06-16 06:21:00,
2013-06-16 00:26:00,64.2,51.3,30.09,ESE,115,0.0,0.0,63,0.00,-RA,OVC,0.00,WeatherDisplay:10.37,2013-06-16 06:26:00,
2013-06-16 00:31:00,63.9,51.5,30.09,ESE,115,0.0,0.0,64,0.00,-RA,OVC,0.00,WeatherDisplay:10.37,2013-06-16 06:31:00,
2013-06-16 00:36:00,63.6,51.6,30.09,ESE,115,0.0,0.0,65,0.00,-RA,OVC,0.00,WeatherDisplay:10.37,2013-06-16 06:36:00,
2013-06-16 00:41:00,63.2,51.2,30.09,ESE,115,0.0,0.0,65,0.00,-RA,OVC,0.00,WeatherDisplay:10.37,2013-06-16 06:41:00,
2013-06-16 00:46:00,62.9,51.8,30.09,ESE,115,0.0,0.0,67,0.00,-RA,OVC,0.00,WeatherDisplay:10.37,2013-06-16 06:46:00,
2013-06-16 00:51:00,62.6,51.5,30.09,ESE,115,0.0,0.0,67,0.00,-RA,OVC,0.00,WeatherDisplay:10.37,2013-06-16 06:51:00,
2013-06-16 00:56:00,62.5,51.8,30.09,ESE,115,0.0,0.0,68,0.00,-RA,OVC,0.00,WeatherDisplay:10.37,2013-06-16 06:56:00,
2013-06-16 01:01:00,62.3,51.6,30.09,ESE,115,0.0,0.0,68,0.00,-RA,OVC,0.00,WeatherDisplay:10.37,2013-06-16 07:01:00,
2013-06-16 01:06:00,62.2,51.5,30.09,ESE,115,0.0,0.0,68,0.00,-RA,OVC,0.00,WeatherDisplay:10.37,2013-06-16 07:06:00,
2013-06-16 01:11:00,62.0,51.7,30.09,ESE,115,0.0,0.0,69,0.00,-RA,OVC,0.00,WeatherDisplay:10.37,2013-06-16 07:11:00,
2013-06-16 01:16:00,61.8,51.5,30.09,ESE,115,0.0,0.0,69,0.00,-RA,OVC,0.00,WeatherDisplay:10.37,2013-06-16 07:16:00,
2013-06-16 01:21:00,61.5,51.2,30.09,ESE,115,0.0,0.0,69,0.00,-RA,OVC,0.00,WeatherDisplay:10.37,2013-06-16 07:21:00,
2013-06-16 01:26:00,61.3,51.4,30.09,ESE,115,0.0,0.0,70,0.00,-RA,OVC,0.00,WeatherDisplay:10.37,2013-06-16 07:26:00,
2013-06-16 01:31:00,61.1,51.6,30.09,ESE,115,0.0,0.0,71,0.00,-RA,OVC,0.00,WeatherDisplay:10.37,2013-06-16 07:31:00,
2013-06-16 01:36:00,60.9,51.4,30.09,ESE,115,0.0,0.0,71,0.00,-RA,OVC,0.00,WeatherDisplay:10.37,2013-06-16 07:36:00,
2013-06-16 01:41:00,60.7,51.2,30.09,ESE,115,0.0,0.0,71,0.00,-RA,OVC,0.00,WeatherDisplay:10.37,2013-06-16 07:41:00,
2013-06-16 01:46:00,60.7,51.2,30.09,ESE,115,0.0,0.0,71,0.00,-RA,OVC,0.00,WeatherDisplay:10.37,2013-06-16 07:46:00,
2013-06-16 01:51:00,60.6,51.1,30.09,ESE,115,0.0,0.0,71,0.00,-RA,OVC,0.00,WeatherDisplay:10.37,2013-06-16 07:51:00,
2013-06-16 01:56:00,60.5,51.0,30.09,ESE,115,0.0,0.0,71,0.00,-RA,OVC,0.00,WeatherDisplay:10.37,2013-06-16 07:56:00,
2013-06-16 02:01:00,60.3,51.2,30.09,ESE,115,0.0,0.0,72,0.00,-RA,OVC,0.00,WeatherDisplay:10.37,2013-06-16 08:01:00,
2013-06-16 02:06:00,60.1,51.0,30.09,ESE,115,0.0,0.0,72,0.00,-RA,OVC,0.00,WeatherDisplay:10.37,2013-06-16 08:06:00,
2013-06-16 02:11:00,60.0,51.3,30.09,ESE,115,0.0,0.0,73,0.00,-RA,OVC,0.00,WeatherDisplay:10.37,2013-06-16 08:11:00,
2013-06-16 02:16:00,60.0,51.3,30.09,ESE,115,2.3,2.3,73,0.00,-RA,OVC,0.00,WeatherDisplay:10.37,2013-06-16 08:16:00,
2013-06-16 02:21:00,60.5,51.4,30.09,ESE,115,0.0,0.0,72,0.00,-RA,OVC,0.00,WeatherDisplay:10.37,2013-06-16 08:21:00,
2013-06-16 02:26:00,60.7,51.2,30.09,ESE,115,0.0,0.0,71,0.00,-RA,OVC,0.00,WeatherDisplay:10.37,2013-06-16 08:26:00,
2013-06-16 02:31:00,60.7,51.2,30.09,ESE,115,0.0,0.0,71,0.00,-RA,OVC,0.00,WeatherDisplay:10.37,2013-06-16 08:31:00,
2013-06-16 02:36:00,60.5,51.0,30.09,ESE,115,0.0,0.0,71,0.00,-RA,OVC,0.00,WeatherDisplay:10.37,2013-06-16 08:36:00,
2013-06-16 02:41:00,60.2,51.1,30.09,ESE,115,0.0,0.0,72,0.00,-RA,OVC,0.00,WeatherDisplay:10.37,2013-06-16 08:41:00,
2013-06-16 02:46:00,60.0,51.3,30.09,ESE,115,1.1,0.0,73,0.00,-RA,OVC,0.00,WeatherDisplay:10.37,2013-06-16 08:46:00,
2013-06-16 02:51:00,59.7,51.0,30.09,ESE,115,0.0,0.0,73,0.00,-RA,OVC,0.00,WeatherDisplay:10.37,2013-06-16 08:51:00,
2013-06-16 02:56:00,59.5,50.8,30.10,ESE,115,0.0,0.0,73,0.00,-RA,OVC,0.00,WeatherDisplay:10.37,2013-06-16 08:56:00,
2013-06-16 03:01:00,59.3,51.0,30.10,ESE,115,0.0,0.0,74,0.00,-RA,OVC,0.00,WeatherDisplay:10.37,2013-06-16 09:01:00,
2013-06-16 03:06:00,59.0,51.1,30.10,ESE,115,0.0,0.0,75,0.00,-RA,OVC,0.00,WeatherDisplay:10.37,2013-06-16 09:06:00,
2013-06-16 03:11:00,58.7,51.2,30.10,ESE,115,0.0,0.0,76,0.00,-RA,OVC,0.00,WeatherDisplay:10.37,2013-06-16 09:11:00,
2013-06-16 03:16:00,58.5,51.0,30.10,ESE,115,0.0,0.0,76,0.00,-RA,OVC,0.00,WeatherDisplay:10.37,2013-06-16 09:16:00,
2013-06-16 03:21:00,58.3,51.1,30.10,ESE,115,0.0,0.0,77,0.00,-RA,OVC,0.00,WeatherDisplay:10.37,2013-06-16 09:21:00,
2013-06-16 03:26:00,58.1,50.9,30.10,ESE,115,0.0,0.0,77,0.00,-RA,OVC,0.00,WeatherDisplay:10.37,2013-06-16 09:26:00,
2013-06-16 03:31:00,58.0,50.8,30.10,ESE,115,0.0,0.0,77,0.00,-RA,OVC,0.00,WeatherDisplay:10.37,2013-06-16 09:31:00,
2013-06-16 03:36:00,57.9,50.7,30.10,ESE,115,0.0,0.0,77,0.00,-RA,OVC,0.00,WeatherDisplay:10.37,2013-06-16 09:36:00,
2013-06-16 03:41:00,57.8,50.6,30.10,ESE,115,0.0,0.0,77,0.00,-RA,OVC,0.00,WeatherDisplay:10.37,2013-06-16 09:41:00,
2013-06-16 03:46:00,57.7,50.2,30.10,ESE,115,0.0,0.0,76,0.00,-RA,OVC,0.00,WeatherDisplay:10.37,2013-06-16 09:46:00,
2013-06-16 03:51:00,57.7,50.5,30.10,ESE,115,0.0,0.0,77,0.00,-RA,OVC,0.00,WeatherDisplay:10.37,2013-06-16 09:51:00,
2013-06-16 03:56:00,57.7,50.2,30.10,ESE,115,0.0,0.0,76,0.00,-RA,OVC,0.00,WeatherDisplay:10.37,2013-06-16 09:56:00,
2013-06-16 04:01:00,57.8,49.6,30.10,ESE,115,3.5,3.5,74,0.00,-RA,OVC,0.00,WeatherDisplay:10.37,2013-06-16 10:01:00,
2013-06-16 04:06:00,57.9,48.9,30.10,ESE,107,3.5,0.0,72,0.00,-RA,OVC,0.00,WeatherDisplay:10.37,2013-06-16 10:06:00,
2013-06-16 04:11:00,58.1,49.1,30.10,NE,54,4.6,4.6,72,0.00,-RA,OVC,0.00,WeatherDisplay:10.37,2013-06-16 10:11:00,
2013-06-16 04:16:00,58.3,48.9,30.10,NE,54,3.5,3.5,71,0.00,-RA,OVC,0.00,WeatherDisplay:10.37,2013-06-16 10:16:00,
2013-06-16 04:21:00,58.4,49.0,30.10,ENE,59,3.5,3.5,71,0.00,-RA,OVC,0.00,WeatherDisplay:10.37,2013-06-16 10:21:00,
2013-06-16 04:26:00,58.5,49.1,30.10,ENE,59,0.0,0.0,71,0.00,-RA,OVC,0.00,WeatherDisplay:10.37,2013-06-16 10:26:00,
2013-06-16 04:31:00,58.5,49.1,30.10,ENE,59,3.5,3.5,71,0.00,-RA,OVC,0.00,WeatherDisplay:10.37,2013-06-16 10:31:00,
2013-06-16 04:36:00,58.5,49.1,30.10,ENE,59,0.0,0.0,71,0.00,-RA,OVC,0.00,WeatherDisplay:10.37,2013-06-16 10:36:00,
2013-06-16 04:41:00,58.4,48.7,30.10,ENE,59,0.0,0.0,70,0.00,-RA,OVC,0.00,WeatherDisplay:10.37,2013-06-16 10:41:00,
2013-06-16 04:46:00,58.2,48.8,30.10,ENE,59,0.0,0.0,71,0.00,-RA,OVC,0.00,WeatherDisplay:10.37,2013-06-16 10:46:00,
2013-06-16 04:51:00,58.0,48.6,30.10,ENE,59,0.0,0.0,71,0.00,-RA,OVC,0.00,WeatherDisplay:10.37,2013-06-16 10:51:00,
2013-06-16 04:56:00,57.7,48.7,30.10,ENE,59,0.0,0.0,72,0.00,-RA,OVC,0.00,WeatherDisplay:10.37,2013-06-16 10:56:00,
2013-06-16 05:01:00,57.3,48.7,30.10,ENE,59,0.0,0.0,73,0.00,-RA,OVC,0.00,WeatherDisplay:10.37,2013-06-16 11:01:00,
2013-06-16 05:06:00,56.9,48.3,30.10,ENE,58,2.3,0.0,73,0.00,-RA,OVC,0.00,WeatherDisplay:10.37,2013-06-16 11:06:00,
2013-06-16 05:11:00,56.5,47.9,30.10,ENE,58,0.0,0.0,73,0.00,-RA,OVC,0.00,WeatherDisplay:10.37,2013-06-16 11:11:00,
2013-06-16 05:16:00,56.3,47.8,30.10,ENE,58,0.0,0.0,73,0.00,-RA,OVC,0.00,WeatherDisplay:10.37,2013-06-16 11:16:00,
2013-06-16 05:21:00,56.1,47.9,30.10,ENE,58,0.0,0.0,74,0.00,-RA,OVC,0.00,WeatherDisplay:10.37,2013-06-16 11:21:00,
2013-06-16 05:26:00,55.9,48.1,30.10,ENE,58,0.0,0.0,75,0.00,-RA,OVC,0.00,WeatherDisplay:10.37,2013-06-16 11:26:00,
2013-06-16 05:31:00,55.8,48.0,30.10,ENE,58,0.0,0.0,75,0.00,-RA,OVC,0.00,WeatherDisplay:10.37,2013-06-16 11:31:00,
2013-06-16 05:36:00,55.6,47.8,30.10,ENE,58,0.0,0.0,75,0.00,-RA,OVC,0.00,WeatherDisplay:10.37,2013-06-16 11:36:00,
2013-06-16 05:41:00,55.5,47.7,30.10,ENE,58,0.0,0.0,75,0.00,-RA,OVC,0.00,WeatherDisplay:10.37,2013-06-16 11:41:00,
2013-06-16 05:46:00,55.4,47.6,30.10,ENE,58,3.5,3.5,75,0.00,-RA,OVC,0.00,WeatherDisplay:10.37,2013-06-16 11:46:00,
2013-06-16 05:51:00,55.5,47.3,30.10,ENE,58,3.5,3.5,74,0.00,-RA,OVC,0.00,WeatherDisplay:10.37,2013-06-16 11:51:00,
2013-06-16 05:56:00,55.7,47.5,30.10,ENE,61,1.1,1.1,74,0.00,-RA,OVC,0.00,WeatherDisplay:10.37,2013-06-16 11:56:00,
2013-06-16 06:01:00,56.0,47.1,30.10,ENE,64,2.3,2.3,72,0.00,-RA,OVC,0.00,WeatherDisplay:10.37,2013-06-16 12:01:00,
2013-06-16 06:06:00,56.3,47.0,30.10,ENE,67,0.0,0.0,71,0.00,-RA,OVC,0.00,WeatherDisplay:10.37,2013-06-16 12:06:00,
2013-06-16 06:11:00,56.5,47.2,30.10,ENE,67,2.3,0.0,71,0.00,-RA,OVC,0.00,WeatherDisplay:10.37,2013-06-16 12:11:00,
2013-06-16 06:16:00,56.8,47.1,30.10,WNW,296,1.1,0.0,70,0.00,-RA,OVC,0.00,WeatherDisplay:10.37,2013-06-16 12:16:00,
2013-06-16 06:21:00,57.0,46.9,30.10,NE,53,2.3,2.3,69,0.00,-RA,OVC,0.00,WeatherDisplay:10.37,2013-06-16 12:21:00,
2013-06-16 06:26:00,57.3,46.4,30.10,NE,36,3.5,0.0,67,0.00,-RA,OVC,0.00,WeatherDisplay:10.37,2013-06-16 12:26:00,
2013-06-16 06:31:00,57.5,46.6,30.10,NE,36,3.5,3.5,67,0.00,-RA,OVC,0.00,WeatherDisplay:10.37,2013-06-16 12:31:00,
2013-06-16 06:36:00,57.8,46.9,30.10,NE,35,2.3,0.0,67,0.00,-RA,OVC,0.00,WeatherDisplay:10.37,2013-06-16 12:36:00,
2013-06-16 06:41:00,58.1,47.2,30.10,NE,35,1.1,1.1,67,0.00,-RA,OVC,0.00,WeatherDisplay:10.37,2013-06-16 12:41:00,
2013-06-16 06:46:00,58.6,47.7,30.10,East,87,3.5,3.5,67,0.00,-RA,OVC,0.00,WeatherDisplay:10.37,2013-06-16 12:46:00,
2013-06-16 06:51:00,59.2,48.2,30.10,East,87,1.1,0.0,67,0.00,-RA,OVC,0.00,WeatherDisplay:10.37,2013-06-16 12:51:00,
2013-06-16 06:56:00,59.9,48.5,30.10,East,87,0.0,0.0,66,0.00,-RA,OVC,0.00,WeatherDisplay:10.37,2013-06-16 12:56:00,
2013-06-16 07:01:00,60.7,49.3,30.10,East,87,0.0,0.0,66,0.00,-RA,OVC,0.00,WeatherDisplay:10.37,2013-06-16 13:01:00,
2013-06-16 07:06:00,61.3,49.0,30.10,East,87,0.0,0.0,64,0.00,-RA,OVC,0.00,WeatherDisplay:10.37,2013-06-16 13:06:00,
2013-06-16 07:11:00,61.8,49.1,30.10,East,87,0.0,0.0,63,0.00,-RA,OVC,0.00,WeatherDisplay:10.37,2013-06-16 13:11:00,
2013-06-16 07:16:00,62.3,49.5,30.10,East,87,0.0,0.0,63,0.00,-RA,OVC,0.00,WeatherDisplay:10.37,2013-06-16 13:16:00,
2013-06-16 07:21:00,63.1,50.7,30.10,East,87,0.0,0.0,64,0.00,-RA,OVC,0.00,WeatherDisplay:10.37,2013-06-16 13:21:00,
2013-06-16 07:26:00,64.0,51.1,30.10,East,87,0.0,0.0,63,0.00,-RA,OVC,0.00,WeatherDisplay:10.37,2013-06-16 13:26:00,
2013-06-16 07:31:00,64.9,50.2,30.10,East,87,0.0,0.6,59,0.00,-RA,OVC,0.00,WeatherDisplay:10.37,2013-06-16 13:31:00,
2013-06-16 07:36:00,65.7,50.0,30.10,East,87,1.1,0.0,57,0.00,-RA,OVC,0.00,WeatherDisplay:10.37,2013-06-16 13:36:00,
2013-06-16 07:41:00,66.3,50.1,30.10,East,87,1.1,0.0,56,0.00,-RA,OVC,0.00,WeatherDisplay:10.37,2013-06-16 13:41:00,
2013-06-16 07:46:00,66.8,49.6,30.10,East,87,0.0,0.0,54,0.00,-RA,OVC,0.00,WeatherDisplay:10.37,2013-06-16 13:46:00,
2013-06-16 07:51:00,67.0,48.8,30.10,East,87,1.1,1.1,52,0.00,-RA,OVC,0.00,WeatherDisplay:10.37,2013-06-16 13:51:00,
2013-06-16 07:56:00,66.9,49.7,30.10,East,87,0.0,0.2,54,0.00,-RA,OVC,0.00,WeatherDisplay:10.37,2013-06-16 13:56:00,
2013-06-16 08:01:00,66.9,49.7,30.10,East,87,1.1,0.0,54,0.00,-RA,OVC,0.00,WeatherDisplay:10.37,2013-06-16 14:01:00,
2013-06-16 08:06:00,67.0,49.3,30.10,East,87,2.3,2.3,53,0.00,-RA,OVC,0.00,WeatherDisplay:10.37,2013-06-16 14:06:00,
2013-06-16 08:11:00,67.2,50.0,30.10,East,87,0.0,0.0,54,0.00,-RA,OVC,0.00,WeatherDisplay:10.37,2013-06-16 14:11:00,
2013-06-16 08:16:00,68.0,49.7,30.10,East,88,2.3,2.3,52,0.00,-RA,OVC,0.00,WeatherDisplay:10.37,2013-06-16 14:16:00,
2013-06-16 08:21:00,68.7,49.8,30.10,East,88,0.0,0.2,51,0.00,-RA,OVC,0.00,WeatherDisplay:10.37,2013-06-16 14:21:00,
2013-06-16 08:26:00,69.2,50.3,30.10,East,88,1.1,0.0,51,0.00,-RA,OVC,0.00,WeatherDisplay:10.37,2013-06-16 14:26:00,
2013-06-16 08:31:00,69.8,49.8,30.10,East,88,1.1,1.1,49,0.00,-RA,OVC,0.00,WeatherDisplay:10.37,2013-06-16 14:31:00,
2013-06-16 08:36:00,70.0,49.4,30.10,East,88,3.5,3.5,48,0.00,-RA,OVC,0.00,WeatherDisplay:10.37,2013-06-16 14:36:00,
2013-06-16 08:41:00,70.3,49.1,30.10,East,90,1.1,1.1,47,0.00,-RA,OVC,0.00,WeatherDisplay:10.37,2013-06-16 14:41:00,
2013-06-16 08:46:00,70.7,49.5,30.10,East,90,3.5,3.5,47,0.00,-RA,OVC,0.00,WeatherDisplay:10.37,2013-06-16 14:46:00,
2013-06-16 08:51:00,70.9,49.7,30.10,East,90,1.1,0.0,47,0.00,-RA,OVC,0.00,WeatherDisplay:10.37,2013-06-16 14:51:00,
2013-06-16 08:56:00,71.2,49.4,30.10,East,90,1.1,0.0,46,0.00,-RA,OVC,0.00,WeatherDisplay:10.37,2013-06-16 14:56:00,
2013-06-16 09:01:00,71.7,49.8,30.10,East,89,2.3,2.3,46,0.00,-RA,OVC,0.00,WeatherDisplay:10.37,2013-06-16 15:01:00,
2013-06-16 09:06:00,71.9,48.8,30.10,East,89,0.0,0.0,44,0.00,-RA,OVC,0.00,WeatherDisplay:10.37,2013-06-16 15:06:00,
2013-06-16 09:11:00,72.4,49.3,30.10,East,88,1.1,0.0,44,0.00,-RA,OVC,0.00,WeatherDisplay:10.37,2013-06-16 15:11:00,
2013-06-16 09:16:00,72.9,49.7,30.10,East,88,0.0,0.0,44,0.00,-RA,OVC,0.00,WeatherDisplay:10.37,2013-06-16 15:16:00,
2013-06-16 09:21:00,73.4,50.2,30.10,East,87,1.1,1.1,44,0.00,-RA,OVC,0.00,WeatherDisplay:10.37,2013-06-16 15:21:00,
2013-06-16 09:26:00,73.8,50.5,30.10,East,86,2.3,2.3,44,0.00,-RA,OVC,0.00,WeatherDisplay:10.37,2013-06-16 15:26:00,
2013-06-16 09:31:00,74.0,49.4,30.10,East,85,2.3,2.3,42,0.00,-RA,OVC,0.00,WeatherDisplay:10.37,2013-06-16 15:31:00,
2013-06-16 09:36:00,74.3,50.4,30.10,NE,38,3.5,3.5,43,0.00,-RA,OVC,0.00,WeatherDisplay:10.37,2013-06-16 15:36:00,
2013-06-16 09:41:00,74.7,50.1,30.10,NE,38,1.1,1.1,42,0.00,-RA,OVC,0.00,WeatherDisplay:10.37,2013-06-16 15:41:00,
2013-06-16 09:46:00,75.3,49.3,30.10,NE,38,1.1,1.2,40,0.00,-RA,OVC,0.00,WeatherDisplay:10.37,2013-06-16 15:46:00,
2013-06-16 09:51:00,75.5,48.8,30.10,NE,38,2.3,2.3,39,0.00,-RA,OVC,0.00,WeatherDisplay:10.37,2013-06-16 15:51:00,
2013-06-16 09:56:00,75.8,50.4,30.10,NE,38,2.0,2.0,41,0.00,-RA,OVC,0.00,WeatherDisplay:10.37,2013-06-16 15:56:00,
2013-06-16 10:01:00,76.6,49.8,30.10,NNE,31,1.1,0.0,39,0.00,-RA,OVC,0.00,WeatherDisplay:10.37,2013-06-16 16:01:00,
2013-06-16 10:06:00,77.4,49.1,30.10,NNE,30,0.0,1.3,37,0.00,-RA,OVC,0.00,WeatherDisplay:10.37,2013-06-16 16:06:00,
2013-06-16 10:11:00,78.2,49.8,30.10,NNE,30,1.1,1.1,37,0.00,-RA,OVC,0.00,WeatherDisplay:10.37,2013-06-16 16:11:00,
2013-06-16 10:16:00,78.9,49.7,30.10,NNE,30,1.1,0.0,36,0.00,-RA,OVC,0.00,WeatherDisplay:10.37,2013-06-16 16:16:00,
2013-06-16 10:21:00,79.4,47.8,30.10,NNE,30,3.5,3.5,33,0.00,-RA,OVC,0.00,WeatherDisplay:10.37,2013-06-16 16:21:00,
2013-06-16 10:26:00,79.7,49.6,30.10,NNE,30,1.1,1.1,35,0.00,-RA,OVC,0.00,WeatherDisplay:10.37,2013-06-16 16:26:00,
2013-06-16 10:31:00,80.1,47.6,30.10,NNE,30,1.1,0.0,32,0.00,-RA,OVC,0.00,WeatherDisplay:10.37,2013-06-16 16:31:00,
2013-06-16 10:36:00,80.7,47.2,30.10,NNE,28,3.5,3.5,31,0.00,-RA,OVC,0.00,WeatherDisplay:10.37,2013-06-16 16:36:00,
2013-06-16 10:41:00,81.4,47.0,30.10,NNE,28,0.0,0.0,30,0.00,-RA,OVC,0.00,WeatherDisplay:10.37,2013-06-16 16:41:00,
2013-06-16 10:46:00,82.2,45.8,30.10,NW,306,4.6,4.6,28,0.00,-RA,OVC,0.00,WeatherDisplay:10.37,2013-06-16 16:46:00,
2013-06-16 10:51:00,82.5,47.0,30.10,NW,322,2.3,2.3,29,0.00,-RA,OVC,0.00,WeatherDisplay:10.37,2013-06-16 16:51:00,
2013-06-16 10:56:00,82.7,45.3,30.10,WNW,288,2.3,2.3,27,0.00,-RA,OVC,0.00,WeatherDisplay:10.37,2013-06-16 16:56:00,
2013-06-16 11:01:00,83.0,44.6,30.10,WNW,302,3.5,3.5,26,0.00,-RA,OVC,0.00,WeatherDisplay:10.37,2013-06-16 17:01:00,
2013-06-16 11:06:00,82.8,43.4,30.10,WNW,284,2.3,2.3,25,0.00,-RA,OVC,0.00,WeatherDisplay:10.37,2013-06-16 17:06:00,
2013-06-16 11:11:00,82.6,42.1,30.10,WNW,285,1.1,0.0,24,0.00,-RA,OVC,0.00,WeatherDisplay:10.37,2013-06-16 17:11:00,
2013-06-16 11:16:00,82.6,46.2,30.10,WNW,285,0.0,0.4,28,0.00,-RA,OVC,0.00,WeatherDisplay:10.37,2013-06-16 17:16:00,
2013-06-16 11:21:00,82.6,45.2,30.10,WNW,283,0.0,0.0,27,0.00,-RA,OVC,0.00,WeatherDisplay:10.37,2013-06-16 17:21:00,
2013-06-16 11:26:00,82.8,42.3,30.10,West,267,4.6,4.6,24,0.00,-RA,OVC,0.00,WeatherDisplay:10.37,2013-06-16 17:26:00,
2013-06-16 11:31:00,82.6,43.2,30.10,West,265,2.3,2.3,25,0.00,-RA,OVC,0.00,WeatherDisplay:10.37,2013-06-16 17:31:00,
2013-06-16 11:36:00,81.9,43.6,30.10,West,265,0.0,0.1,26,0.00,-RA,OVC,0.00,WeatherDisplay:10.37,2013-06-16 17:36:00,
2013-06-16 11:41:00,81.6,45.3,30.10,West,265,0.0,0.0,28,0.00,-RA,OVC,0.00,WeatherDisplay:10.37,2013-06-16 17:41:00,
2013-06-16 11:46:00,81.4,46.1,30.10,West,265,0.0,0.0,29,0.00,-RA,OVC,0.00,WeatherDisplay:10.37,2013-06-16 17:46:00,
2013-06-16 11:51:00,81.2,45.0,30.10,West,265,0.0,0.0,28,0.00,-RA,OVC,0.00,WeatherDisplay:10.37,2013-06-16 17:51:00,
2013-06-16 11:56:00,80.9,44.7,30.10,West,265,0.0,0.0,28,0.00,-RA,OVC,0.00,WeatherDisplay:10.37,2013-06-16 17:56:00,
2013-06-16 12:01:00,80.4,47.0,30.10,West,265,0.0,0.0,31,0.00,-RA,OVC,0.00,WeatherDisplay:10.37,2013-06-16 18:01:00,
2013-06-16 12:06:00,79.7,45.5,30.10,West,265,0.0,0.0,30,0.00,-RA,OVC,0.00,WeatherDisplay:10.37,2013-06-16 18:06:00,
2013-06-16 12:11:00,79.0,44.0,30.10,West,265,0.0,0.0,29,0.00,-RA,OVC,0.00,WeatherDisplay:10.37,2013-06-16 18:11:00,
2013-06-16 12:16:00,78.4,45.3,30.10,West,265,0.0,0.0,31,0.00,-RA,OVC,0.00,WeatherDisplay:10.37,2013-06-16 18:16:00,
2013-06-16 12:21:00,77.9,43.1,30.10,ESE,121,3.5,4.3,29,0.00,-RA,OVC,0.00,WeatherDisplay:10.37,2013-06-16 18:21:00,
2013-06-16 12:26:00,77.2,39.6,30.10,South,175,10.4,10.4,26,0.00,-RA,OVC,0.00,WeatherDisplay:10.37,2013-06-16 18:26:00,
2013-06-16 12:31:00,76.4,36.9,30.10,SE,127,11.5,11.5,24,0.00,-RA,OVC,0.00,WeatherDisplay:10.37,2013-06-16 18:31:00,
2013-06-16 12:36:00,75.8,40.4,30.10,East,100,8.1,8.1,28,0.00,-RA,OVC,0.00,WeatherDisplay:10.37,2013-06-16 18:36:00,
2013-06-16 12:41:00,75.4,37.1,30.10,ESE,104,4.6,4.6,25,0.00,-RA,OVC,0.00,WeatherDisplay:10.37,2013-06-16 18:41:00,
2013-06-16 12:46:00,74.9,42.2,30.10,East,89,9.0,9.0,31,0.00,-RA,OVC,0.00,WeatherDisplay:10.37,2013-06-16 18:46:00,
2013-06-16 12:51:00,74.0,42.3,30.10,ESE,115,1.1,1.1,32,0.00,-RA,OVC,0.00,WeatherDisplay:10.37,2013-06-16 18:51:00,
2013-06-16 12:56:00,73.3,44.7,30.10,ESE,105,0.0,0.0,36,0.00,-RA,OVC,0.00,WeatherDisplay:10.37,2013-06-16 18:56:00,
2013-06-16 13:01:00,72.5,44.7,30.10,North,360,2.0,2.0,37,0.00,-RA,OVC,0.00,WeatherDisplay:10.37,2013-06-16 19:01:00,
2013-06-16 13:06:00,71.8,42.7,30.10,SE,128,3.5,3.5,35,0.00,-RA,OVC,0.00,WeatherDisplay:10.37,2013-06-16 19:06:00,
2013-06-16 13:11:00,71.5,42.4,30.10,ESE,111,7.0,7.0,35,0.00,-RA,OVC,0.00,WeatherDisplay:10.37,2013-06-16 19:11:00,
2013-06-16 13:16:00,71.4,42.3,30.10,ENE,68,5.8,5.8,35,0.00,-RA,OVC,0.00,WeatherDisplay:10.37,2013-06-16 19:16:00,
2013-06-16 13:21:00,71.3,42.2,30.10,NE,52,11.5,11.5,35,0.00,-RA,OVC,0.00,WeatherDisplay:10.37,2013-06-16 19:21:00,
2013-06-16 13:26:00,70.8,43.2,30.10,NE,51,19.6,19.6,37,0.00,-RA,OVC,0.00,WeatherDisplay:10.37,2013-06-16 19:26:00,
2013-06-16 13:31:00,70.3,42.8,30.10,NE,52,11.5,11.5,37,0.00,-RA,OVC,0.00,WeatherDisplay:10.37,2013-06-16 19:31:00,
2013-06-16 13:36:00,70.1,46.6,30.10,North,11,5.8,5.8,43,0.00,-RA,OVC,0.00,WeatherDisplay:10.37,2013-06-16 19:36:00,
2013-06-16 13:41:00,70.0,44.6,30.10,SE,132,0.0,0.8,40,0.00,-RA,OVC,0.00,WeatherDisplay:10.37,2013-06-16 19:41:00,
2013-06-16 13:46:00,70.1,44.6,30.10,East,92,1.1,1.1,40,0.00,-RA,OVC,0.00,WeatherDisplay:10.37,2013-06-16 19:46:00,
2013-06-16 13:51:00,70.3,45.5,30.10,East,92,2.3,2.3,41,0.00,-RA,OVC,0.00,WeatherDisplay:10.37,2013-06-16 19:51:00,
2013-06-16 13:56:00,70.7,47.1,30.10,East,92,0.0,0.0,43,0.00,-RA,OVC,0.00,WeatherDisplay:10.37,2013-06-16 19:56:00,
2013-06-16 14:01:00,71.0,47.4,30.10,East,92,0.0,0.0,43,0.00,-RA,OVC,0.00,WeatherDisplay:10.37,2013-06-16 20:01:00,
2013-06-16 14:06:00,71.0,47.4,30.10,ENE,75,3.5,3.5,43,0.00,-RA,OVC,0.00,WeatherDisplay:10.37,2013-06-16 20:06:00,
2013-06-16 14:11:00,70.8,47.8,30.10,East,88,2.3,2.3,44,0.00,-RA,OVC,0.00,WeatherDisplay:10.37,2013-06-16 20:11:00,
2013-06-16 14:16:00,70.6,48.2,30.10,East,81,1.1,1.6,45,0.00,-RA,OVC,0.00,WeatherDisplay:10.37,2013-06-16 20:16:00,
2013-06-16 14:21:00,70.5,46.9,30.10,ENE,57,1.1,1.1,43,0.00,-RA,OVC,0.00,WeatherDisplay:10.37,2013-06-16 20:21:00,
2013-06-16 14:26:00,70.6,47.0,30.10,NNE,33,1.1,0.0,43,0.00,-RA,OVC,0.00,WeatherDisplay:10.37,2013-06-16 20:26:00,
2013-06-16 14:31:00,70.9,47.3,30.10,NE,34,2.3,2.3,43,0.00,-RA,OVC,0.00,WeatherDisplay:10.37,2013-06-16 20:31:00,
2013-06-16 14:36:00,71.5,46.6,30.10,NE,40,2.3,2.3,41,0.00,-RA,OVC,0.00,WeatherDisplay:10.37,2013-06-16 20:36:00,
2013-06-16 14:41:00,72.1,47.1,30.10,North,351,4.6,4.6,41,0.00,-RA,OVC,0.00,WeatherDisplay:10.37,2013-06-16 20:41:00,
2013-06-16 14:46:00,72.9,49.1,30.10,North,360,4.6,4.6,43,0.00,-RA,OVC,0.00,WeatherDisplay:10.37,2013-06-16 20:46:00,
2013-06-16 14:51:00,73.7,47.2,30.10,NNW,327,9.2,9.2,39,0.00,-RA,OVC,0.00,WeatherDisplay:10.37,2013-06-16 20:51:00,
2013-06-16 14:56:00,74.3,47.0,30.16,NE,49,9.2,9.2,38,0.00,-RA,OVC,0.00,WeatherDisplay:10.37,2013-06-16 20:56:00,
2013-06-16 15:01:00,74.4,47.1,30.16,NNE,13,4.6,4.6,38,0.00,-RA,OVC,0.00,WeatherDisplay:10.37,2013-06-16 21:01:00,
2013-06-16 15:06:00,74.6,45.9,30.16,NE,42,8.1,8.1,36,0.00,-RA,OVC,0.00,WeatherDisplay:10.37,2013-06-16 21:06:00,
2013-06-16 15:11:00,75.2,45.7,30.16,NE,36,1.1,1.1,35,0.00,-RA,OVC,0.00,WeatherDisplay:10.37,2013-06-16 21:11:00,
2013-06-16 15:16:00,76.3,46.6,30.16,East,93,3.5,3.5,35,0.00,-RA,OVC,0.00,WeatherDisplay:10.37,2013-06-16 21:16:00,
2013-06-16 15:21:00,76.8,45.5,30.16,North,10,9.2,9.2,33,0.00,-RA,OVC,0.00,WeatherDisplay:10.37,2013-06-16 21:21:00,
2013-06-16 15:26:00,76.5,45.2,30.16,North,10,2.0,2.0,33,0.00,-RA,OVC,0.00,WeatherDisplay:10.37,2013-06-16 21:26:00,
2013-06-16 15:31:00,76.7,46.2,30.16,NNW,333,5.8,5.8,34,0.00,-RA,OVC,0.00,WeatherDisplay:10.37,2013-06-16 21:31:00,
2013-06-16 15:36:00,76.9,44.8,30.16,North,5,4.6,4.6,32,0.00,-RA,OVC,0.00,WeatherDisplay:10.37,2013-06-16 21:36:00,
2013-06-16 15:41:00,77.0,47.2,30.16,WNW,284,2.3,2.3,35,0.00,-RA,OVC,0.00,WeatherDisplay:10.37,2013-06-16 21:41:00,
2013-06-16 15:46:00,77.2,45.0,30.16,WNW,284,1.1,0.0,32,0.00,-RA,OVC,0.00,WeatherDisplay:10.37,2013-06-16 21:46:00,
2013-06-16 15:51:00,77.4,46.8,30.16,West,281,0.0,0.0,34,0.00,-RA,OVC,0.00,WeatherDisplay:10.37,2013-06-16 21:51:00,
2013-06-16 15:56:00,78.1,46.6,30.16,SSW,206,1.1,3.0,33,0.00,-RA,OVC,0.00,WeatherDisplay:10.37,2013-06-16 21:56:00,
2013-06-16 16:01:00,78.1,45.0,30.16,SSW,205,3.5,3.5,31,0.00,-RA,OVC,0.00,WeatherDisplay:10.37,2013-06-16 22:01:00,
2013-06-16 16:06:00,78.2,46.7,30.16,SSW,207,2.0,2.0,33,0.00,-RA,OVC,0.00,WeatherDisplay:10.37,2013-06-16 22:06:00,
2013-06-16 16:11:00,78.6,46.3,30.16,NE,51,3.5,3.5,32,0.00,-RA,OVC,0.00,WeatherDisplay:10.37,2013-06-16 22:11:00,
2013-06-16 16:17:00,78.8,45.6,30.16,NNE,28,1.1,1.1,31,0.00,-RA,OVC,0.00,WeatherDisplay:10.37,2013-06-16 22:17:00,
2013-06-16 16:22:00,78.7,46.4,30.16,North,9,4.0,4.1,32,0.00,-RA,OVC,0.00,WeatherDisplay:10.37,2013-06-16 22:22:00,
2013-06-16 16:27:00,78.2,45.1,30.16,NNW,336,9.2,9.2,31,0.00,-RA,OVC,0.00,WeatherDisplay:10.37,2013-06-16 22:27:00,
2013-06-16 16:32:00,77.6,45.4,30.16,NW,317,4.6,4.6,32,0.00,-RA,OVC,0.00,WeatherDisplay:10.37,2013-06-16 22:32:00,
2013-06-16 16:37:00,77.6,45.4,30.16,NNE,28,6.9,6.9,32,0.00,-RA,OVC,0.00,WeatherDisplay:10.37,2013-06-16 22:37:00,
2013-06-16 16:42:00,77.1,45.8,30.16,North,350,4.6,4.6,33,0.00,-RA,OVC,0.00,WeatherDisplay:10.37,2013-06-16 22:42:00,
2013-06-16 16:47:00,76.9,45.6,30.16,NE,36,3.5,3.5,33,0.00,-RA,OVC,0.00,WeatherDisplay:10.37,2013-06-16 22:47:00,
2013-06-16 16:52:00,77.0,45.7,30.16,NNE,23,5.8,5.8,33,0.00,-RA,OVC,0.00,WeatherDisplay:10.37,2013-06-16 22:52:00,
2013-06-16 16:57:00,77.1,45.0,30.16,NE,49,9.2,9.2,32,0.00,-RA,OVC,0.00,WeatherDisplay:10.37,2013-06-16 22:57:00,
2013-06-16 17:02:00,76.8,45.5,30.16,NNW,342,6.9,6.9,33,0.00,-RA,OVC,0.00,WeatherDisplay:10.37,2013-06-16 23:02:00,
2013-06-16 17:07:00,76.6,44.5,30.16,NNE,15,3.5,3.5,32,0.00,-RA,OVC,0.00,WeatherDisplay:10.37,2013-06-16 23:07:00,
2013-06-16 17:12:00,76.8,44.7,30.16,NNE,30,1.1,1.1,32,0.00,-RA,OVC,0.00,WeatherDisplay:10.37,2013-06-16 23:12:00,
2013-06-16 17:17:00,77.0,44.9,30.16,North,9,4.6,4.6,32,0.00,-RA,OVC,0.00,WeatherDisplay:10.37,2013-06-16 23:17:00,
2013-06-16 17:22:00,77.1,45.0,30.16,NNE,22,3.5,3.5,32,0.00,-RA,OVC,0.00,WeatherDisplay:10.37,2013-06-16 23:22:00,
2013-06-16 17:27:00,77.1,44.1,30.16,NNE,26,5.8,5.8,31,0.00,-RA,OVC,0.00,WeatherDisplay:10.37,2013-06-16 23:27:00,
2013-06-16 17:32:00,77.1,45.0,30.16,NNE,16,1.1,1.1,32,0.00,-RA,OVC,0.00,WeatherDisplay:10.37,2013-06-16 23:32:00,
2013-06-16 17:37:00,77.8,43.9,30.16,North,10,6.0,6.0,30,0.00,-RA,OVC,0.00,WeatherDisplay:10.37,2013-06-16 23:37:00,
2013-06-16 17:42:00,78.2,44.2,30.16,West,273,5.8,5.8,30,0.00,-RA,OVC,0.00,WeatherDisplay:10.37,2013-06-16 23:42:00,
2013-06-16 17:47:00,78.4,45.3,30.16,West,267,3.5,3.5,31,0.00,-RA,OVC,0.00,WeatherDisplay:10.37,2013-06-16 23:47:00,
2013-06-16 17:52:00,78.5,44.5,30.16,WNW,284,4.6,4.6,30,0.00,-RA,OVC,0.00,WeatherDisplay:10.37,2013-06-16 23:52:00,
2013-06-16 17:57:00,78.3,44.3,30.16,North,351,4.6,4.6,30,0.00,-RA,OVC,0.00,WeatherDisplay:10.37,2013-06-16 23:57:00,
2013-06-16 18:02:00,78.0,44.9,30.16,NE,40,10.4,10.4,31,0.00,-RA,OVC,0.00,WeatherDisplay:10.37,2013-06-17 00:02:00,
2013-06-16 18:07:00,77.0,44.9,30.16,NE,40,5.8,5.8,32,0.00,-RA,OVC,0.00,WeatherDisplay:10.37,2013-06-17 00:07:00,
2013-06-16 18:12:00,76.0,44.8,30.16,NE,44,5.8,5.8,33,0.00,-RA,OVC,0.00,WeatherDisplay:10.37,2013-06-17 00:12:00,
2013-06-16 18:17:00,75.3,45.0,30.16,NE,38,5.8,5.8,34,0.00,-RA,OVC,0.00,WeatherDisplay:10.37,2013-06-17 00:17:00,
2013-06-16 18:22:00,74.8,44.5,30.16,NNE,25,9.2,9.2,34,0.00,-RA,OVC,0.00,WeatherDisplay:10.37,2013-06-17 00:22:00,
2013-06-16 18:27:00,74.4,45.0,30.16,NE,42,3.5,3.5,35,0.00,-RA,OVC,0.00,WeatherDisplay:10.37,2013-06-17 00:27:00,
2013-06-16 18:32:00,74.1,45.4,30.16,ENE,58,3.5,3.5,36,0.00,-RA,OVC,0.00,WeatherDisplay:10.37,2013-06-17 00:32:00,
2013-06-16 18:37:00,73.9,46.0,30.16,ENE,62,4.0,4.0,37,0.00,-RA,OVC,0.00,WeatherDisplay:10.37,2013-06-17 00:37:00,
2013-06-16 18:42:00,73.6,45.7,30.16,ENE,65,2.3,2.3,37,0.00,-RA,OVC,0.00,WeatherDisplay:10.37,2013-06-17 00:42:00,
2013-06-16 18:47:00,73.3,45.4,30.16,ENE,60,3.5,3.5,37,0.00,-RA,OVC,0.00,WeatherDisplay:10.37,2013-06-17 00:47:00,
2013-06-16 18:52:00,73.1,46.0,30.16,East,94,4.6,4.6,38,0.00,-RA,OVC,0.00,WeatherDisplay:10.37,2013-06-17 00:52:00,
2013-06-16 18:57:00,73.0,45.2,30.16,East,98,11.5,11.5,37,0.00,-RA,OVC,0.00,WeatherDisplay:10.37,2013-06-17 00:57:00,
2013-06-16 19:02:00,71.5,48.4,30.16,ENE,78,24.2,24.2,44,0.01,-RA,OVC,0.01,WeatherDisplay:10.37,2013-06-17 01:02:00,
2013-06-16 19:07:00,65.5,48.4,30.16,East,89,11.5,11.5,54,0.06,-RA,OVC,0.06,WeatherDisplay:10.37,2013-06-17 01:07:00,
2013-06-16 19:12:00,62.4,49.2,30.16,ENE,65,4.6,4.6,62,0.07,-RA,OVC,0.07,WeatherDisplay:10.37,2013-06-17 01:12:00,
2013-06-16 19:17:00,60.6,49.6,30.16,NE,49,8.1,8.1,67,0.07,-RA,OVC,0.07,WeatherDisplay:10.37,2013-06-17 01:17:00,
2013-06-16 19:22:00,60.0,50.9,30.16,NE,55,3.5,3.5,72,0.07,-RA,OVC,0.07,WeatherDisplay:10.37,2013-06-17 01:22:00,
2013-06-16 19:27:00,60.1,51.4,30.12,NE,42,10.4,10.4,73,0.07,-RA,OVC,0.07,WeatherDisplay:10.37,2013-06-17 01:27:00,
2013-06-16 19:32:00,60.5,51.4,30.12,NE,40,12.7,12.7,72,0.07,-RA,OVC,0.07,WeatherDisplay:10.37,2013-06-17 01:32:00,
2013-06-16 19:37:00,60.8,51.7,30.12,NE,42,6.0,6.0,72,0.07,-RA,OVC,0.07,WeatherDisplay:10.37,2013-06-17 01:37:00,
2013-06-16 19:42:00,61.2,51.3,30.12,NE,40,5.8,5.8,70,0.07,-RA,OVC,0.07,WeatherDisplay:10.37,2013-06-17 01:42:00,
2013-06-16 19:47:00,61.7,49.4,30.11,ENE,69,11.5,11.5,64,0.07,-RA,OVC,0.07,WeatherDisplay:10.37,2013-06-17 01:47:00,
2013-06-16 19:52:00,62.7,49.1,30.11,ENE,72,12.7,12.7,61,0.07,-RA,OVC,0.07,WeatherDisplay:10.37,2013-06-17 01:52:00,
2013-06-16 19:57:00,63.3,48.3,30.11,ENE,57,9.2,9.2,58,0.07,-RA,OVC,0.07,WeatherDisplay:10.37,2013-06-17 01:57:00,
2013-06-16 20:02:00,63.6,47.1,30.11,NNE,29,11.5,11.5,55,0.06,-RA,OVC,0.07,WeatherDisplay:10.37,2013-06-17 02:02:00,
2013-06-16 20:07:00,64.0,48.0,30.11,ENE,65,6.9,6.9,56,0.01,-RA,OVC,0.07,WeatherDisplay:10.37,2013-06-17 02:07:00,
2013-06-16 20:12:00,64.1,48.1,30.11,NE,38,3.5,3.5,56,0.00,-RA,OVC,0.07,WeatherDisplay:10.37,2013-06-17 02:12:00,
2013-06-16 20:17:00,64.0,48.9,30.11,NE,40,3.5,3.5,58,0.00,-RA,OVC,0.07,WeatherDisplay:10.37,2013-06-17 02:17:00,
2013-06-16 20:22:00,63.8,47.3,30.11,NE,42,0.0,0.0,55,0.00,-RA,OVC,0.07,WeatherDisplay:10.37,2013-06-17 02:22:00,
2013-06-16 20:27:00,63.6,48.1,30.11,ESE,112,0.0,0.0,57,0.00,-RA,OVC,0.07,WeatherDisplay:10.37,2013-06-17 02:27:00,
2013-06-16 20:32:00,63.3,47.8,30.11,ESE,113,0.0,0.0,57,0.00,-RA,OVC,0.07,WeatherDisplay:10.37,2013-06-17 02:32:00,
2013-06-16 20:37:00,62.9,48.3,30.11,ESE,113,2.3,2.3,59,0.00,-RA,OVC,0.07,WeatherDisplay:10.37,2013-06-17 02:37:00,
2013-06-16 20:42:00,62.3,48.2,30.11,ESE,113,0.0,0.0,60,0.00,-RA,OVC,0.07,WeatherDisplay:10.37,2013-06-17 02:42:00,
2013-06-16 20:47:00,61.9,47.0,30.11,ESE,113,0.0,0.0,58,0.00,-RA,OVC,0.07,WeatherDisplay:10.37,2013-06-17 02:47:00,
2013-06-16 20:52:00,61.8,45.0,30.11,SE,125,0.0,0.0,54,0.00,-RA,OVC,0.07,WeatherDisplay:10.37,2013-06-17 02:52:00,
2013-06-16 20:57:00,62.1,46.7,30.11,SE,134,2.3,2.3,57,0.00,-RA,OVC,0.07,WeatherDisplay:10.37,2013-06-17 02:57:00,
2013-06-16 21:02:00,62.3,46.9,30.11,SE,134,0.0,0.0,57,0.00,-RA,OVC,0.07,WeatherDisplay:10.37,2013-06-17 03:02:00,
2013-06-16 21:07:00,62.2,45.8,30.11,SE,136,3.5,3.5,55,0.00,-RA,OVC,0.07,WeatherDisplay:10.37,2013-06-17 03:07:00,
2013-06-16 21:12:00,62.7,42.7,30.11,SE,133,3.5,3.5,48,0.00,-RA,OVC,0.07,WeatherDisplay:10.37,2013-06-17 03:12:00,
2013-06-16 21:17:00,63.7,43.6,30.11,SE,133,2.3,2.3,48,0.00,-RA,OVC,0.07,WeatherDisplay:10.37,2013-06-17 03:17:00,
2013-06-16 21:22:00,64.9,40.6,30.11,ESE,115,5.8,5.8,41,0.00,-RA,OVC,0.07,WeatherDisplay:10.37,2013-06-17 03:22:00,
2013-06-16 21:27:00,66.0,42.2,30.11,ESE,115,0.0,0.0,42,0.00,-RA,OVC,0.07,WeatherDisplay:10.37,2013-06-17 03:27:00,
2013-06-16 21:32:00,66.2,44.2,30.11,ESE,115,0.0,0.0,45,0.00,-RA,OVC,0.07,WeatherDisplay:10.37,2013-06-17 03:32:00,
2013-06-16 21:37:00,66.0,44.0,30.11,ESE,115,0.0,0.0,45,0.00,-RA,OVC,0.07,WeatherDisplay:10.37,2013-06-17 03:37:00,
2013-06-16 21:42:00,65.5,43.0,30.11,ESE,115,0.0,0.0,44,0.00,-RA,OVC,0.07,WeatherDisplay:10.37,2013-06-17 03:42:00,
2013-06-16 21:47:00,64.8,43.5,30.11,ESE,115,0.0,0.0,46,0.00,-RA,OVC,0.07,WeatherDisplay:10.37,2013-06-17 03:47:00,
2013-06-16 21:52:00,64.0,45.0,30.11,ESE,115,0.0,0.0,50,0.00,-RA,OVC,0.07,WeatherDisplay:10.37,2013-06-17 03:52:00,
2013-06-16 21:57:00,63.0,46.1,30.11,ESE,115,0.0,0.0,54,0.00,-RA,OVC,0.07,WeatherDisplay:10.37,2013-06-17 03:57:00,
2013-06-16 22:01:00,62.4,45.0,30.11,ESE,115,0.0,0.0,53,0.00,-RA,OVC,0.07,WeatherDisplay:10.37,2013-06-17 04:01:00,
2013-06-16 22:06:00,61.6,44.8,30.11,ESE,115,0.0,0.0,54,0.00,-RA,OVC,0.07,WeatherDisplay:10.37,2013-06-17 04:06:00,
2013-06-16 22:11:00,61.0,45.7,30.13,ESE,115,0.0,0.0,57,0.00,-RA,OVC,0.07,WeatherDisplay:10.37,2013-06-17 04:11:00,
2013-06-16 22:16:00,60.4,45.5,30.13,ESE,115,0.0,0.0,58,0.00,-RA,OVC,0.07,WeatherDisplay:10.37,2013-06-17 04:16:00,
2013-06-16 22:21:00,59.8,46.3,30.13,ESE,115,0.0,0.0,61,0.00,-RA,OVC,0.07,WeatherDisplay:10.37,2013-06-17 04:21:00,
2013-06-16 22:26:00,59.3,46.3,30.13,ESE,115,0.0,0.0,62,0.00,-RA,OVC,0.07,WeatherDisplay:10.37,2013-06-17 04:26:00,
2013-06-16 22:31:00,58.9,46.7,30.13,ESE,115,0.0,0.0,64,0.00,-RA,OVC,0.07,WeatherDisplay:10.37,2013-06-17 04:31:00,
2013-06-16 22:36:00,58.4,47.1,30.13,ESE,115,0.0,0.0,66,0.00,-RA,OVC,0.07,WeatherDisplay:10.37,2013-06-17 04:36:00,
2013-06-16 22:41:00,58.0,47.1,30.13,ESE,115,0.0,0.0,67,0.00,-RA,OVC,0.07,WeatherDisplay:10.37,2013-06-17 04:41:00,
2013-06-16 22:46:00,57.7,47.2,30.13,ESE,115,0.0,0.0,68,0.00,-RA,OVC,0.07,WeatherDisplay:10.37,2013-06-17 04:46:00,
2013-06-16 22:51:00,57.4,46.9,30.13,ESE,115,0.0,0.0,68,0.00,-RA,OVC,0.07,WeatherDisplay:10.37,2013-06-17 04:51:00,
2013-06-16 22:56:00,57.2,47.5,30.13,ESE,115,0.0,0.0,70,0.00,-RA,OVC,0.07,WeatherDisplay:10.37,2013-06-17 04:56:00,
2013-06-16 23:01:00,57.0,47.3,30.13,ESE,115,0.0,0.0,70,0.00,-RA,OVC,0.07,WeatherDisplay:10.37,2013-06-17 05:01:00,
2013-06-16 23:06:00,56.9,47.2,30.13,ESE,115,0.0,0.0,70,0.00,-RA,OVC,0.07,WeatherDisplay:10.37,2013-06-17 05:06:00,
2013-06-16 23:11:00,56.6,46.5,30.13,ESE,115,0.0,0.1,69,0.00,-RA,OVC,0.07,WeatherDisplay:10.37,2013-06-17 05:11:00,
2013-06-16 23:16:00,56.6,46.9,30.13,ESE,115,0.0,0.0,70,0.00,-RA,OVC,0.07,WeatherDisplay:10.37,2013-06-17 05:16:00,
2013-06-16 23:21:00,56.8,46.7,30.13,ESE,115,2.3,2.3,69,0.00,-RA,OVC,0.07,WeatherDisplay:10.37,2013-06-17 05:21:00,
2013-06-16 23:26:00,57.1,46.2,30.13,ESE,113,2.3,2.3,67,0.00,-RA,OVC,0.07,WeatherDisplay:10.37,2013-06-17 05:26:00,
2013-06-16 23:31:00,57.6,46.3,30.13,ESE,113,1.1,0.0,66,0.00,-RA,OVC,0.07,WeatherDisplay:10.37,2013-06-17 05:31:00,
2013-06-16 23:36:00,57.8,45.7,30.13,ESE,113,2.3,0.0,64,0.00,-RA,OVC,0.07,WeatherDisplay:10.37,2013-06-17 05:36:00,
2013-06-16 23:41:00,57.9,45.8,30.13,ESE,113,0.0,0.0,64,0.00,-RA,OVC,0.07,WeatherDisplay:10.37,2013-06-17 05:41:00,
2013-06-16 23:46:00,57.8,45.3,30.13,ESE,113,0.0,0.0,63,0.00,-RA,OVC,0.07,WeatherDisplay:10.37,2013-06-17 05:46:00,
2013-06-16 23:51:00,57.5,45.8,30.13,ESE,113,0.0,0.0,65,0.00,-RA,OVC,0.07,WeatherDisplay:10.37,2013-06-17 05:51:00,
2013-06-16 23:56:00,57.3,45.2,30.13,ESE,113,0.0,0.0,64,0.00,-RA,OVC,0.07,WeatherDisplay:10.37,2013-06-17 05:56:00,